920  
ASUS42 KCAE 150610  
RWRCAE  
REGIONAL WEATHER ROUNDUP  
NATIONAL WEATHER SERVICE COLUMBIA SC  
200 AM EDT SUN SEP 15 2019  
 
NOTE: "FAIR" INDICATES FEW OR NO CLOUDS BELOW 12,000 FEET WITH NO  
SIGNIFICANT WEATHER AND/OR S TO VISIBILITY
.  
 
NOT ALL STATIONS ARE QUALITY CONTROLLED BY THE NATIONAL  
WEATHER SERVICE. USE DATA WITH CAUTION...ESPECIALLY  
DEWPOINT OBSERVATIONS.  
 
SCZ001>056-GAZ040-063>065-077-150700-   
..UPSTATE SOUTH CAROLINA
 
 
 
CITY SKY/WX TMP DP RH WIND PRES REMARKS
 
ANDERSON FAIR 72 69 90 CALM 30.19S  
6HR MIN TEMP: 72; 6HR MAX TEMP: 78;  
 
LIBERTY FAIR 69 69 100 CALM 30.20S  
6HR MIN TEMP: 69; 6HR MAX TEMP: 72;  
 
SPARTANBURG FAIR 72 70 94 CALM 30.18F  
CLEMSON FAIR 71 70 96 N3 30.20F  
6HR MIN TEMP: 70; 6HR MAX TEMP: 72;  
 
GREENVILLE FAIR 75 71 87 CALM 30.21S  
6HR MIN TEMP: 75; 6HR MAX TEMP: 81;  
 
GREENWOOD FAIR 69 69 100 CALM 30.19S  
6HR MIN TEMP: 69; 6HR MAX TEMP: 76;  
 
GREER FAIR 72 69 90 CALM 30.20S  
6HR MIN TEMP: 71; 6HR MAX TEMP: 78;  
 
ROCK HILL FOG 70 69 97 CALM 30.18F VSB 1/2  
6HR MIN TEMP: 70; 6HR MAX TEMP: 76;  
 
CHESTER FAIR 72 70 94 CALM 30.19S  
LAURENS FAIR 70 70 100 CALM 30.18F FOG  
 
   
..CENTRAL SOUTH CAROLINA
 
 
 
CITY SKY/WX TMP DP RH WIND PRES REMARKS
 
COLUMBIA APT FAIR 74 70 87 CALM 30.14S  
6HR MIN TEMP: 73; 6HR MAX TEMP: 83;  
 
COLUMBIA OWENS FAIR 74 70 87 CALM 30.15F  
6HR MIN TEMP: 74; 6HR MAX TEMP: 83;  
 
MCENTIRE ANGB FAIR 69 69 100 CALM 30.14F  
6HR MIN TEMP: 68; 6HR MAX TEMP: 80;  
 
ORANGEBURG FAIR 72 69 90 NE3 30.13F  
6HR MIN TEMP: 72; 6HR MAX TEMP: 81;  
 
SUMTER SHAW FAIR 72 69 90 NE5 30.14F  
6HR MIN TEMP: 71; 6HR MAX TEMP: 78;  
 
AIKEN FAIR 70 70 100 CALM 30.18S  
BARNWELL N/A 72 70 94 CALM 30.13F  
MANNING FAIR 70 70 100 CALM 30.13F  
CAMDEN FAIR 72 70 94 CALM 30.16F  
LANCASTER CLOUDY 70 70 100 CALM 30.17S FOG  
WINNSBORO FAIR 72 68 88 N5 30.17S  
 
   
..EASTERN AND COASTAL SOUTH CAROLINA
 
 
 
CITY SKY/WX TMP DP RH WIND PRES REMARKS
 
MYRTLE BEACH FAIR 76 73 91 N7 30.13S  
6HR MIN TEMP: 76; 6HR MAX TEMP: 81;  
 
N MYRTLE BCH FAIR 75 73 93 NE5 30.12F  
6HR MIN TEMP: 74; 6HR MAX TEMP: 80;  
 
MARION FAIR 70 70 100 CALM 30.14F  
HARTSVILLE CLOUDY 72 70 94 CALM 30.16S  
FLORENCE FAIR 73 70 90 CALM 30.15S  
6HR MIN TEMP: 72; 6HR MAX TEMP: 80;  
 
DARLINGTON FAIR 71 70 96 CALM 30.16S  
6HR MIN TEMP: 71; 6HR MAX TEMP: 78;  
 
CHARLESTON APT FAIR 74 72 93 NE8 30.10F  
6HR MIN TEMP: 74; 6HR MAX TEMP: 77;  
 
MOUNT PLEASANT FAIR 75 75 100 CALM 30.10S  
WALTERBORO FAIR 73 72 94 NE3 30.12S  
BEAUFORT FAIR 75 74 96 NE5 30.09F  
6HR MIN TEMP: 75; 6HR MAX TEMP: 76;  
 
HILTON HEAD MOCLDY 77 75 94 NE8 30.09S  
 
   
..EASTERN GEORGIA
 
 
 
CITY SKY/WX TMP DP RH WIND PRES REMARKS
 
AUGUSTA BUSH F FAIR 73 70 90 CALM 30.13F  
6HR MIN TEMP: 73; 6HR MAX TEMP: 82;  
 
AUGUSTA DANIEL FAIR 76 69 79 N7 30.15S  
6HR MIN TEMP: 76; 6HR MAX TEMP: 84;  
 
THOMSON FAIR 71 70 98 CALM 30.15F  
6HR MIN TEMP: 70; 6HR MAX TEMP: 81;  
 
WASHINGTON FAIR 70 70 100 N3 30.16F  
CLAXTON FAIR 75 73 93 CALM 30.10S  
6HR MIN TEMP: 75; 6HR MAX TEMP: 82;  
 
SYLVANIA N/A 73 72 94 CALM 30.12S  
6HR MIN TEMP: 73; 6HR MAX TEMP: 78;  
 
STATESBORO FAIR 73 70 91 CALM 30.11S  
6HR MIN TEMP: 73; 6HR MAX TEMP: 80;  
 
SAVANNAH FAIR 74 74 100 NE5 30.09F  
6HR MIN TEMP: 74; 6HR MAX TEMP: 80;  
 
   
..SOUTHERN NORTH CAROLINA
 
 
 
CITY SKY/WX TMP DP RH WIND PRES REMARKS
 
CHARLOTTE FAIR 71 68 90 CALM 30.18F  
6HR MIN TEMP: 71; 6HR MAX TEMP: 80;  
 
MONROE FAIR 71 68 90 CALM 30.17S  
6HR MIN TEMP: 70; 6HR MAX TEMP: 77;  
 
ASHEVILLE FOG 66 64 93 CALM 30.27F VSB 1  
6HR MIN TEMP: 66; 6HR MAX TEMP: 68; 6HR PCP: TRACE;  
 

 
 
 
CLICK HERE TO GO TO PREVIOUS BULLETINS.

The Nexlab SC Page
The Nexlab GA Page Main Text Page